[[{"header":{"parameterUnit":"m.s-1","parameterCategory":2,"la1":30.2991,"la2":30.254,"lo1":-89.0895,"lo2":-89.0444,"dy":0.0017,"dx":0.0017,"nx":28,"ny":28,"refTime":"2025-03-23T21:00:00:Z","depth":"0","parameterNumber":2,"parameterNumberName":"U-component_of_CURRENTS"},"data":[0,0,0,0,0,0,0,0,0,0,0,0,0,0,0,0,0,0,0,0,0,0,0,0,0,0,0,0,0,0,0,0,0,0,0,0,0,0,0,0,0,0,0,0,0,0,0,0,0,0,0,0,0,0,0,0,0,0,-0.2392,-0.2392,0,-0.2397,-0.2397,-0.2397,-0.242,-0.242,-0.2421,-0.2422,-0.2452,-0.2452,-0.2452,0,0,0,0,0,0,0,0,0,0,0,0,0,-0.2394,-0.2394,-0.2392,-0.2392,-0.2392,-0.2397,-0.2397,-0.2397,-0.2419,-0.242,-0.2421,-0.2422,-0.2452,-0.2452,-0.2452,0,0,0,0,0,0,0,0,0,0,0,0,0,-0.2394,-0.2394,-0.2392,-0.2406,-0.2407,-0.2397,-0.2397,-0.2397,-0.2419,-0.242,-0.2421,-0.2422,-0.2452,-0.2452,-0.2452,-0.2432,0,0,-0.2453,-0.2453,0,0,0,0,0,0,0,0,-0.2394,-0.2393,-0.2404,-0.2405,-0.2406,-0.2411,-0.2409,-0.241,-0.2419,-0.2412,-0.2422,-0.2423,-0.2441,-0.2442,-0.2437,-0.2433,-0.2434,-0.2453,-0.2453,-0.2453,-0.2453,0,0,0,0,0,0,0,-0.2394,-0.2393,-0.2392,-0.2404,-0.2406,-0.2409,-0.241,-0.2409,-0.2419,-0.2413,-0.2415,-0.2419,-0.2442,-0.2437,-0.2438,-0.2435,-0.2453,-0.2453,-0.2453,-0.2453,-0.2395,-0.2393,0,0,0,0,0,0,-0.2396,-0.2393,-0.2392,-0.2392,-0.2405,-0.2409,-0.241,-0.2406,-0.2419,-0.2422,-0.2418,-0.242,-0.2436,-0.2438,-0.244,-0.2435,-0.2453,-0.2453,-0.2453,-0.2396,-0.2394,-0.2392,0,0,0,0,0,0,-0.2396,-0.2396,-0.2392,-0.2395,-0.2395,-0.2408,-0.2404,-0.2406,-0.2409,-0.2423,-0.2426,-0.242,-0.2437,-0.2439,-0.243,-0.2436,-0.2453,-0.2453,-0.2398,-0.2396,-0.2393,-0.2415,0,0,0,0,0,0,-0.2396,-0.2395,-0.2388,-0.2395,-0.2395,-0.2391,-0.2403,-0.2405,-0.241,-0.2413,-0.2425,-0.2429,-0.2438,-0.2429,-0.243,-0.2437,-0.2454,-0.24,-0.2397,-0.2394,-0.2416,-0.2413,-0.2411,0,0,0,0,0,-0.2396,-0.2384,-0.2387,-0.2387,-0.2386,-0.2391,-0.2391,-0.2403,-0.2409,-0.2409,-0.2406,-0.2429,-0.241,-0.2428,-0.2429,-0.2436,-0.2402,-0.2398,-0.2394,-0.2417,-0.2414,-0.2411,0,0,0,0,0,0,-0.2377,-0.2385,-0.239,-0.2379,-0.2388,-0.2396,-0.2391,-0.2401,-0.2398,-0.2398,-0.2411,-0.2414,-0.2408,-0.2404,-0.2424,-0.2403,-0.2408,-0.2404,-0.2424,-0.2421,-0.2418,-0.2431,-0.2454,0,0,0,0,0,-0.237,-0.2361,-0.2376,-0.2365,-0.237,-0.2379,-0.2381,-0.2391,-0.2392,-0.2393,-0.24,-0.2395,-0.239,-0.2392,-0.2385,-0.2376,-0.2368,-0.2375,-0.2372,-0.237,-0.2376,-0.2362,-0.236,-0.238,-0.238,-0.238,0,0,-0.2356,-0.236,-0.2354,-0.236,-0.2363,-0.2376,-0.2382,-0.2385,-0.2395,-0.2395,-0.2398,-0.2389,-0.2382,-0.2373,-0.237,-0.2376,-0.2355,-0.2366,-0.2365,-0.2372,-0.2359,-0.2357,-0.2356,-0.2378,-0.2378,-0.2378,0,0,-0.2338,-0.2332,-0.2329,-0.234,-0.2353,-0.2362,-0.2366,-0.2377,-0.2381,-0.2378,-0.2378,-0.2366,-0.2362,-0.2359,-0.2357,-0.2328,-0.234,-0.2323,-0.233,-0.2317,-0.2316,-0.2316,-0.2291,-0.2288,-0.2325,-0.2325,-0.2325,0,-0.2324,-0.2324,-0.2328,-0.2339,-0.235,-0.2361,-0.2373,-0.2376,-0.2382,-0.2381,-0.2381,-0.236,-0.2357,-0.235,-0.234,-0.2328,-0.2317,-0.2354,-0.2318,-0.2317,-0.2316,-0.2291,-0.2288,-0.2325,-0.2325,-0.2325,-0.2325,0,-0.2315,-0.2321,-0.2319,-0.2339,-0.2351,-0.2356,-0.2376,-0.2379,-0.2383,-0.2387,-0.2375,-0.2359,-0.235,-0.2342,-0.2338,-0.2326,-0.2319,-0.2319,-0.2338,-0.2316,-0.229,-0.2286,-0.2326,-0.2326,-0.2326,-0.2326,0,0,-0.2266,-0.2307,-0.2306,-0.2324,-0.2353,-0.2362,-0.2376,-0.239,-0.2399,-0.239,-0.2395,-0.2372,-0.2362,-0.2356,-0.2345,-0.2332,-0.2311,-0.2327,-0.2326,-0.2323,-0.2275,-0.2174,-0.216,-0.2314,-0.2314,-0.2314,-0.2255,0,-0.2258,-0.2285,-0.2306,-0.2331,-0.2349,-0.2372,-0.2388,-0.2401,-0.2406,-0.2411,-0.2391,-0.2387,-0.2369,-0.2365,-0.2349,-0.2328,-0.2304,-0.2327,-0.2277,-0.2275,-0.2207,-0.2153,-0.2078,-0.2011,-0.2251,-0.2251,-0.225,0,-0.2239,-0.2265,-0.2293,-0.234,-0.2349,-0.2366,-0.2394,-0.241,-0.2421,-0.2424,-0.2416,-0.2408,-0.2389,-0.2375,-0.2326,-0.2345,-0.2307,-0.2284,-0.2282,-0.2181,-0.2167,-0.2071,-0.1995,-0.1987,-0.2245,-0.2245,-0.2245,0,-0.2203,-0.2249,-0.2273,-0.2289,-0.2345,-0.2357,-0.2381,-0.2405,-0.2416,-0.2431,-0.2435,-0.2419,-0.2402,-0.2368,-0.2307,-0.2326,-0.2244,-0.2266,-0.2133,-0.2126,-0.2047,-0.2032,-0.1976,-0.2218,-0.2218,-0.2218,-0.2219,0,-0.2182,-0.2197,-0.2259,-0.2273,-0.2292,-0.2342,-0.2359,-0.238,-0.2413,-0.242,-0.2434,-0.2418,-0.24,-0.2351,-0.2308,-0.2189,-0.2237,-0.2118,-0.2098,-0.2046,-0.2033,-0.201,-0.2037,-0.2216,-0.2217,-0.2217,-0.2218,0,-0.2126,-0.2174,-0.2197,-0.2258,-0.2274,-0.2283,-0.2337,-0.2354,-0.2393,-0.2404,-0.241,-0.241,-0.2339,-0.2292,-0.2224,-0.2167,-0.2042,-0.2028,-0.1957,-0.1928,-0.1798,-0.1829,-0.1748,-0.1699,-0.1886,-0.1883,-0.1881,0,-0.2096,-0.2104,-0.2162,-0.2176,-0.2199,-0.2231,-0.2256,-0.2321,-0.235,-0.238,-0.2382,-0.2329,-0.2247,-0.21,-0.2003,-0.1886,-0.1907,-0.176,-0.1773,-0.1757,-0.1779,-0.1816,-0.1786,-0.168,-0.1676,-0.1673,-0.1671,0,-0.2021,-0.2041,-0.2061,-0.2103,-0.2131,-0.2165,-0.2215,-0.2237,-0.2314,-0.2297,-0.226,-0.2191,-0.2057,-0.1884,-0.1743,-0.1675,-0.1725,-0.1688,-0.1699,-0.162,-0.1632,-0.1586,-0.1757,-0.1642,-0.1645,-0.1647,-0.1648,-0.165,-0.1941,-0.1935,-0.1975,-0.2009,-0.2053,-0.2098,-0.2029,-0.2102,-0.2094,-0.2013,-0.2098,-0.1909,-0.1819,-0.1589,-0.1521,-0.1408,-0.1479,-0.1386,-0.1427,-0.1469,-0.1406,-0.1493,-0.1336,-0.1337,-0.1338,-0.1339,-0.134,0,-0.1829,-0.1856,-0.1885,-0.1924,-0.1927,-0.1974,-0.1984,-0.1871,-0.1771,-0.1747,-0.1654,-0.1545,-0.1411,-0.134,-0.1256,-0.119,-0.1192,-0.1177,-0.1245,-0.1226,-0.1318,-0.1292,-0.1082,-0.1082,-0.1082,-0.1082,-0.1082,-0.1082,-0.1772,-0.1768,-0.1805,-0.1795,-0.179,-0.1656,-0.1584,-0.1456,-0.1359,-0.117,-0.1051,-0.0994,-0.1077,-0.1232,-0.1182,-0.1126,-0.1128,-0.1083,-0.1113,-0.1224,-0.1249,-0.1273,-0.1254,-0.104,-0.104,-0.0987,-0.0987,-0.0987]},{"header":{"parameterUnit":"m.s-1","parameterCategory":2,"la1":30.2991,"la2":30.254,"lo1":-89.0895,"lo2":-89.0444,"dy":0.0017,"dx":0.0017,"nx":28,"ny":28,"refTime":"2025-03-23T21:00:00:Z","depth":"0","parameterNumber":3,"parameterNumberName":"V-component_of_CURRENTS"},"data":[0,0,0,0,0,0,0,0,0,0,0,0,0,0,0,0,0,0,0,0,0,0,0,0,0,0,0,0,0,0,0,0,0,0,0,0,0,0,0,0,0,0,0,0,0,0,0,0,0,0,0,0,0,0,0,0,0,0,-0.032,-0.032,0,-0.0239,-0.0238,-0.0237,-0.0188,-0.0187,-0.0187,-0.0187,-0.0048,-0.0045,-0.0041,0,0,0,0,0,0,0,0,0,0,0,0,0,-0.0403,-0.0402,-0.032,-0.0319,-0.0318,-0.0239,-0.0238,-0.0237,-0.0188,-0.0187,-0.0187,-0.0187,-0.0049,-0.0045,-0.0041,0,0,0,0,0,0,0,0,0,0,0,0,0,-0.0349,-0.0401,-0.0321,-0.0285,-0.028,-0.024,-0.0238,-0.0237,-0.0188,-0.0187,-0.0187,-0.0187,-0.005,-0.0045,-0.004,-0.0015,0,0,-0.0024,-0.0022,0,0,0,0,0,0,0,0,-0.0352,-0.0346,-0.0291,-0.0287,-0.0282,-0.0223,-0.0216,-0.016,-0.0188,-0.0223,-0.0187,-0.0187,-0.0102,-0.0092,-0.0078,-0.0008,-0.0002,-0.0024,-0.002,-0.0018,-0.0017,0,0,0,0,0,0,0,-0.0356,-0.0349,-0.0288,-0.029,-0.0285,-0.0262,-0.0254,-0.0205,-0.0164,-0.022,-0.0216,-0.0207,-0.0099,-0.0083,-0.0074,-0.0,-0.0024,-0.0019,-0.0016,-0.0014,0.0102,0.0101,0,0,0,0,0,0,-0.0368,-0.0352,-0.0291,-0.0286,-0.0317,-0.0261,-0.0252,-0.0242,-0.0165,-0.0154,-0.0208,-0.0205,-0.0092,-0.0081,-0.0069,-0.0032,-0.0018,-0.0013,-0.001,0.0102,0.0101,0.0101,0,0,0,0,0,0,-0.037,-0.0363,-0.0294,-0.0317,-0.0307,-0.026,-0.0249,-0.0241,-0.0225,-0.0157,-0.0144,-0.0201,-0.0092,-0.0077,-0.0033,-0.0026,-0.0011,-0.0006,0.0102,0.0102,0.0101,0.0042,0,0,0,0,0,0,-0.0373,-0.0365,-0.0363,-0.0318,-0.0306,-0.0274,-0.025,-0.024,-0.022,-0.0217,-0.0147,-0.0133,-0.009,-0.0042,-0.0028,-0.0018,-0.0002,0.0102,0.0102,0.0101,0.0044,0.004,0.0036,0,0,0,0,0,-0.0376,-0.0373,-0.0364,-0.0356,-0.0305,-0.0274,-0.0266,-0.0231,-0.0221,-0.0216,-0.0173,-0.0136,-0.0033,-0.0038,-0.0022,-0.001,0.0102,0.0102,0.0101,0.0046,0.0041,0.0037,0,0,0,0,0,0,-0.0403,-0.0367,-0.0355,-0.034,-0.0313,-0.0266,-0.0257,-0.0236,-0.02,-0.0196,-0.0136,-0.0119,-0.0078,-0.0039,-0.0046,0.0021,0.0041,0.0044,-0.0007,-0.0011,-0.0015,-0.0028,0.0002,0,0,0,0,0,-0.0411,-0.0403,-0.0364,-0.0353,-0.0343,-0.0303,-0.0287,-0.0266,-0.0227,-0.0211,-0.0163,-0.0113,-0.0067,-0.0037,0.0008,0.0047,0.0093,0.0064,0.006,0.0056,0.0056,0.0121,0.0123,0.0101,0.0101,0.0101,0,0,-0.0418,-0.0398,-0.0392,-0.036,-0.0336,-0.0327,-0.0293,-0.0273,-0.0262,-0.02,-0.0171,-0.0124,-0.0061,-0.0021,0.0001,0.0014,0.0088,0.0056,0.0053,0.0054,0.0121,0.0123,0.0125,0.0101,0.0101,0.0101,0,0,-0.0437,-0.0413,-0.0418,-0.04,-0.0372,-0.0346,-0.0344,-0.0302,-0.0279,-0.0247,-0.0201,-0.0155,-0.0086,-0.0038,-0.0005,-0.0002,0.0062,0.0013,-0.001,0.0053,0.0055,0.0058,0.0123,0.0132,0.0015,0.0015,0.0014,0,-0.0449,-0.045,-0.0414,-0.0416,-0.0406,-0.036,-0.0365,-0.0333,-0.0283,-0.026,-0.0246,-0.0143,-0.0093,-0.0034,-0.0036,-0.001,0.0036,0.0002,0.0048,0.0052,0.0055,0.0122,0.0133,0.0012,0.0012,0.0012,0.0013,0,-0.0476,-0.0476,-0.0476,-0.0466,-0.0447,-0.0443,-0.04,-0.0378,-0.0346,-0.0308,-0.0249,-0.0182,-0.012,-0.0095,-0.0063,-0.001,0.0016,0.0032,0.0058,0.0054,0.0124,0.0137,0.0008,0.0009,0.0009,0.001,0,0,-0.0505,-0.0499,-0.05,-0.0508,-0.0476,-0.0465,-0.0443,-0.0405,-0.0383,-0.0329,-0.0294,-0.0215,-0.0176,-0.0137,-0.0084,-0.0027,0.0038,0.0007,0.0012,0.0068,0.0183,0.0213,0.023,0.0061,0.0063,0.0064,0.0222,0,-0.0541,-0.0569,-0.0545,-0.0562,-0.0573,-0.0523,-0.0503,-0.0459,-0.0408,-0.036,-0.0282,-0.0226,-0.0191,-0.0157,-0.01,0.0009,0.0067,-0.0005,0.0182,0.0187,0.0211,0.0244,0.0278,0.0423,0.0235,0.0237,0.0238,0,-0.0579,-0.0593,-0.0626,-0.0616,-0.0613,-0.0609,-0.0564,-0.054,-0.0456,-0.0413,-0.0346,-0.0276,-0.0183,-0.016,0.0018,-0.003,0.0064,0.0147,0.0155,0.0212,0.024,0.0397,0.0453,0.0581,0.0258,0.0256,0.0255,0,-0.0634,-0.0645,-0.0677,-0.0676,-0.0656,-0.0651,-0.0631,-0.0559,-0.0526,-0.0445,-0.04,-0.0291,-0.0214,-0.0096,0.0071,0.0049,0.0273,0.0267,0.0385,0.0388,0.047,0.0478,0.067,0.0385,0.0385,0.0385,0.0384,0,-0.0688,-0.0709,-0.0708,-0.0728,-0.0746,-0.0707,-0.0697,-0.0655,-0.0581,-0.0516,-0.0436,-0.0349,-0.0192,-0.0044,0.0077,0.0281,0.0284,0.0394,0.0435,0.045,0.0454,0.061,0.064,0.0391,0.0389,0.0388,0.0387,0,-0.0747,-0.075,-0.0784,-0.078,-0.0779,-0.0793,-0.0752,-0.073,-0.0653,-0.0565,-0.0535,-0.0372,-0.0171,-0.0006,0.0222,0.0312,0.057,0.0553,0.056,0.0598,0.0793,0.0816,0.1032,0.1103,0.0701,0.0703,0.0704,0,-0.0783,-0.081,-0.0834,-0.0854,-0.0858,-0.0863,-0.0855,-0.0785,-0.0736,-0.0553,-0.0502,-0.03,-0.0125,0.0195,0.0386,0.0608,0.0686,0.076,0.0714,0.0826,0.0884,0.0892,0.0936,0.081,0.0812,0.0814,0.0815,0,-0.0842,-0.0849,-0.0877,-0.0922,-0.0935,-0.0922,-0.089,-0.0835,-0.0703,-0.0572,-0.0356,-0.0205,0.0056,0.033,0.0581,0.0705,0.0844,0.0802,0.0932,0.0998,0.1009,0.1088,0.0681,0.0831,0.083,0.0828,0.0828,0.0827,-0.0874,-0.091,-0.0942,-0.0975,-0.0979,-0.0912,-0.0805,-0.0716,-0.0544,-0.0225,-0.0189,0.0153,0.0301,0.0658,0.0786,0.1052,0.0996,0.1136,0.1162,0.1166,0.1214,0.0834,0.1011,0.101,0.101,0.1009,0.1009,0,-0.0908,-0.0939,-0.0985,-0.0963,-0.0904,-0.0909,-0.0766,-0.0569,-0.0258,-0.0037,0.0224,0.0598,0.0839,0.1006,0.1267,0.1412,0.1426,0.1488,0.1523,0.1555,0.1253,0.1237,0.1453,0.1453,0.1453,0.1453,0.1453,0.1452,-0.0924,-0.0977,-0.0996,-0.0887,-0.0819,-0.0639,-0.0487,-0.0186,0.0048,0.05,0.0837,0.103,0.1211,0.1471,0.1725,0.1749,0.188,0.1861,0.1926,0.1726,0.1695,0.1666,0.1661,0.1963,0.1963,0.2228,0.2231,0.2233]}],[{"header":{"parameterUnit":"m.s-1","parameterCategory":2,"la1":30.2991,"la2":30.254,"lo1":-89.0895,"lo2":-89.0444,"dy":0.0017,"dx":0.0017,"nx":28,"ny":28,"refTime":"2025-03-23T21:00:00:Z","depth":"2","parameterNumber":2,"parameterNumberName":"U-component_of_CURRENTS"},"data":[0,0,0,0,0,0,0,0,0,0,0,0,0,0,0,0,0,0,0,0,0,0,0,0,0,0,0,0,0,0,0,0,0,0,0,0,0,0,0,0,0,0,0,0,0,0,0,0,0,0,0,0,0,0,0,0,0,0,-0.2239,-0.2239,0,-0.2245,-0.2245,-0.2245,-0.2264,-0.2265,-0.2266,-0.2266,-0.2281,-0.2281,-0.228,0,0,0,0,0,0,0,0,0,0,0,0,0,-0.2234,-0.2234,-0.2239,-0.2239,-0.2239,-0.2245,-0.2245,-0.2244,-0.2264,-0.2265,-0.2266,-0.2267,-0.2281,-0.2281,-0.228,0,0,0,0,0,0,0,0,0,0,0,0,0,-0.2236,-0.2234,-0.2239,-0.2251,-0.2253,-0.2245,-0.2245,-0.2244,-0.2264,-0.2265,-0.2266,-0.2267,-0.2281,-0.2281,-0.228,-0.2259,0,0,-0.2279,-0.2279,0,0,0,0,0,0,0,0,-0.2235,-0.2235,-0.2249,-0.2251,-0.2252,-0.2257,-0.2248,-0.225,-0.2264,-0.2258,-0.2266,-0.2268,-0.2274,-0.2274,-0.227,-0.2259,-0.226,-0.2279,-0.2279,-0.2279,-0.2279,0,0,0,0,0,0,0,-0.2235,-0.2235,-0.2239,-0.225,-0.2251,-0.2254,-0.2255,-0.2249,-0.2259,-0.2258,-0.226,-0.2264,-0.2275,-0.227,-0.2271,-0.226,-0.2279,-0.2279,-0.2279,-0.2279,-0.2227,-0.2226,0,0,0,0,0,0,-0.2238,-0.2235,-0.2239,-0.2239,-0.2248,-0.2253,-0.2254,-0.2252,-0.2259,-0.2261,-0.2263,-0.2265,-0.2271,-0.2271,-0.2271,-0.2269,-0.2279,-0.2279,-0.2278,-0.2228,-0.2227,-0.2225,0,0,0,0,0,0,-0.2238,-0.2238,-0.2239,-0.224,-0.224,-0.2252,-0.225,-0.2252,-0.2257,-0.2263,-0.2265,-0.2267,-0.2271,-0.2272,-0.2263,-0.2269,-0.2278,-0.2278,-0.2229,-0.2228,-0.2226,-0.2251,0,0,0,0,0,0,-0.2238,-0.2238,-0.2233,-0.2239,-0.224,-0.2239,-0.225,-0.2252,-0.2258,-0.2261,-0.2267,-0.2269,-0.2272,-0.2264,-0.2263,-0.2269,-0.2278,-0.2231,-0.2229,-0.2226,-0.2251,-0.225,-0.2249,0,0,0,0,0,-0.2237,-0.2227,-0.2232,-0.2233,-0.2234,-0.2239,-0.2239,-0.225,-0.2258,-0.2257,-0.2255,-0.2269,-0.2249,-0.2262,-0.2262,-0.2268,-0.2232,-0.2229,-0.2227,-0.2252,-0.225,-0.2249,0,0,0,0,0,0,-0.2218,-0.2229,-0.2235,-0.2227,-0.2236,-0.2243,-0.224,-0.225,-0.2248,-0.2249,-0.2256,-0.2257,-0.2252,-0.2245,-0.226,-0.2241,-0.2241,-0.2239,-0.2261,-0.2259,-0.2258,-0.2268,-0.2278,0,0,0,0,0,-0.2212,-0.2207,-0.2222,-0.2214,-0.2219,-0.223,-0.2232,-0.2242,-0.2244,-0.2244,-0.2249,-0.2243,-0.2237,-0.2238,-0.2229,-0.222,-0.221,-0.2219,-0.2218,-0.2217,-0.2221,-0.2206,-0.2205,-0.2217,-0.2217,-0.2217,0,0,-0.22,-0.2205,-0.2202,-0.2209,-0.2214,-0.2227,-0.2233,-0.2237,-0.2247,-0.2245,-0.2249,-0.2241,-0.2231,-0.2224,-0.222,-0.2223,-0.2204,-0.2214,-0.2214,-0.2218,-0.2203,-0.2202,-0.2202,-0.2215,-0.2215,-0.2215,0,0,-0.2183,-0.2181,-0.218,-0.2192,-0.2206,-0.2216,-0.222,-0.2233,-0.2237,-0.2237,-0.2236,-0.2227,-0.2221,-0.2216,-0.2213,-0.2193,-0.2197,-0.219,-0.2199,-0.2185,-0.2184,-0.2184,-0.216,-0.2158,-0.2192,-0.2192,-0.2192,0,-0.217,-0.2174,-0.2179,-0.2191,-0.2203,-0.2215,-0.2228,-0.2232,-0.224,-0.224,-0.2241,-0.2224,-0.2218,-0.2212,-0.2206,-0.2195,-0.2184,-0.2214,-0.2186,-0.2186,-0.2185,-0.2161,-0.2158,-0.2192,-0.2192,-0.2192,-0.2192,0,-0.2163,-0.2172,-0.2171,-0.2194,-0.2205,-0.2212,-0.2232,-0.2237,-0.2244,-0.225,-0.2243,-0.2227,-0.222,-0.2213,-0.2208,-0.2198,-0.219,-0.2189,-0.22,-0.2186,-0.216,-0.2156,-0.2194,-0.2193,-0.2193,-0.2193,0,0,-0.2119,-0.216,-0.216,-0.218,-0.2209,-0.2218,-0.2234,-0.225,-0.2261,-0.2256,-0.2264,-0.2243,-0.2236,-0.2229,-0.2219,-0.2206,-0.2188,-0.2199,-0.2198,-0.2192,-0.2151,-0.2055,-0.2042,-0.2189,-0.2189,-0.2189,-0.2132,0,-0.2113,-0.2141,-0.2162,-0.2188,-0.2206,-0.223,-0.2247,-0.2262,-0.227,-0.2277,-0.226,-0.2259,-0.2243,-0.2241,-0.2226,-0.2202,-0.218,-0.2202,-0.215,-0.2148,-0.2079,-0.2035,-0.1908,-0.184,-0.2129,-0.2128,-0.2128,0,-0.2097,-0.2123,-0.2152,-0.2198,-0.2207,-0.2225,-0.2255,-0.2272,-0.2286,-0.2292,-0.2288,-0.2282,-0.2264,-0.2251,-0.2203,-0.2221,-0.2185,-0.2161,-0.2159,-0.206,-0.2046,-0.1899,-0.1822,-0.2122,-0.2122,-0.2123,-0.2123,0,-0.2064,-0.2109,-0.2134,-0.215,-0.2205,-0.2219,-0.2243,-0.227,-0.2281,-0.23,-0.2304,-0.2292,-0.2275,-0.2243,-0.2185,-0.2201,-0.2123,-0.214,-0.2015,-0.2009,-0.1883,-0.1865,-0.2095,-0.2095,-0.2096,-0.2096,-0.2096,0,-0.2045,-0.2061,-0.2122,-0.2136,-0.2157,-0.2206,-0.2225,-0.2248,-0.2281,-0.2284,-0.2304,-0.2288,-0.2272,-0.2226,-0.2185,-0.2071,-0.2117,-0.2002,-0.1981,-0.1884,-0.1868,-0.2104,-0.2106,-0.2094,-0.2094,-0.2095,-0.2095,0,-0.1993,-0.204,-0.2064,-0.2125,-0.2141,-0.2152,-0.2205,-0.2218,-0.226,-0.2266,-0.2272,-0.2276,-0.2208,-0.2168,-0.2103,-0.2048,-0.1971,-0.1918,-0.1796,-0.1761,-0.1872,-0.1876,-0.1787,-0.1783,-0.178,-0.1777,-0.1774,0,-0.1966,-0.1976,-0.2033,-0.2045,-0.2069,-0.2101,-0.2122,-0.2187,-0.2203,-0.2239,-0.2229,-0.2189,-0.2114,-0.1979,-0.1881,-0.1771,-0.1851,-0.1605,-0.1607,-0.1848,-0.1838,-0.1847,-0.1855,-0.1453,-0.1448,-0.1444,-0.1441,0,-0.1897,-0.1917,-0.1937,-0.197,-0.1995,-0.2022,-0.206,-0.2067,-0.2136,-0.2138,-0.2105,-0.2051,-0.1921,-0.173,-0.1599,-0.153,-0.1617,-0.1519,-0.1791,-0.1548,-0.1527,-0.152,-0.1539,-0.1406,-0.1409,-0.1412,-0.1414,-0.1415,-0.1823,-0.1816,-0.1848,-0.187,-0.1907,-0.1923,-0.1886,-0.1927,-0.1921,-0.188,-0.1937,-0.1781,-0.172,-0.1412,-0.1318,-0.1237,-0.1351,-0.1307,-0.1322,-0.134,-0.1309,-0.1283,-0.111,-0.1111,-0.1113,-0.1114,-0.1115,0,-0.1715,-0.173,-0.1746,-0.1772,-0.1753,-0.182,-0.1825,-0.172,-0.1645,-0.1663,-0.1609,-0.1365,-0.123,-0.1153,-0.097,-0.0936,-0.0958,-0.0905,-0.0948,-0.0982,-0.1013,-0.0968,-0.0677,-0.0675,-0.0674,-0.0673,0,0,-0.1658,-0.1631,-0.1648,-0.1598,-0.1612,-0.1505,-0.1461,-0.1351,-0.1284,-0.1155,-0.1092,-0.1174,-0.1117,-0.09,-0.0856,-0.0733,-0.0854,-0.0694,-0.1046,-0.1131,-0.116,-0.124,-0.1208,0,0,0,0,0]},{"header":{"parameterUnit":"m.s-1","parameterCategory":2,"la1":30.2991,"la2":30.254,"lo1":-89.0895,"lo2":-89.0444,"dy":0.0017,"dx":0.0017,"nx":28,"ny":28,"refTime":"2025-03-23T21:00:00:Z","depth":"2","parameterNumber":3,"parameterNumberName":"V-component_of_CURRENTS"},"data":[0,0,0,0,0,0,0,0,0,0,0,0,0,0,0,0,0,0,0,0,0,0,0,0,0,0,0,0,0,0,0,0,0,0,0,0,0,0,0,0,0,0,0,0,0,0,0,0,0,0,0,0,0,0,0,0,0,0,-0.0396,-0.0395,0,-0.0321,-0.0321,-0.032,-0.0274,-0.0274,-0.0274,-0.0274,-0.0152,-0.0149,-0.0146,0,0,0,0,0,0,0,0,0,0,0,0,0,-0.047,-0.0469,-0.0396,-0.0395,-0.0394,-0.0322,-0.0321,-0.0319,-0.0274,-0.0274,-0.0274,-0.0274,-0.0153,-0.0149,-0.0146,0,0,0,0,0,0,0,0,0,0,0,0,0,-0.0421,-0.0469,-0.0397,-0.0363,-0.0359,-0.0322,-0.032,-0.0319,-0.0274,-0.0274,-0.0274,-0.0274,-0.0154,-0.015,-0.0145,-0.0123,0,0,-0.0131,-0.0129,0,0,0,0,0,0,0,0,-0.0424,-0.0419,-0.0369,-0.0365,-0.0361,-0.0307,-0.0302,-0.0251,-0.0275,-0.0307,-0.0274,-0.0273,-0.02,-0.0191,-0.0179,-0.0118,-0.0113,-0.0131,-0.0128,-0.0126,-0.0125,0,0,0,0,0,0,0,-0.0428,-0.0421,-0.0367,-0.0368,-0.0363,-0.0342,-0.0335,-0.0292,-0.0255,-0.0304,-0.03,-0.0292,-0.0197,-0.0183,-0.0175,-0.0111,-0.0131,-0.0127,-0.0124,-0.0122,-0.0019,-0.0019,0,0,0,0,0,0,-0.0439,-0.0425,-0.0369,-0.0364,-0.0392,-0.0341,-0.0333,-0.0325,-0.0256,-0.0246,-0.0293,-0.029,-0.0191,-0.0181,-0.0171,-0.0135,-0.0126,-0.0122,-0.0119,-0.0019,-0.0019,-0.0019,0,0,0,0,0,0,-0.0441,-0.0434,-0.0372,-0.0393,-0.0383,-0.034,-0.0331,-0.0323,-0.0309,-0.0248,-0.0237,-0.0286,-0.019,-0.0177,-0.0138,-0.013,-0.012,-0.0116,-0.0019,-0.0019,-0.0019,-0.0068,0,0,0,0,0,0,-0.0443,-0.0436,-0.0435,-0.0394,-0.0383,-0.0355,-0.0331,-0.0322,-0.0304,-0.0301,-0.0239,-0.0227,-0.0189,-0.0145,-0.0134,-0.0124,-0.0112,-0.0019,-0.0019,-0.0019,-0.0066,-0.007,-0.0073,0,0,0,0,0,-0.0446,-0.0445,-0.0435,-0.0428,-0.0383,-0.0355,-0.0348,-0.0315,-0.0304,-0.0301,-0.0261,-0.0229,-0.0137,-0.0142,-0.0128,-0.0117,-0.0019,-0.0019,-0.0019,-0.0065,-0.0069,-0.0072,0,0,0,0,0,0,-0.0472,-0.0439,-0.0428,-0.0415,-0.0391,-0.0348,-0.034,-0.032,-0.0287,-0.0283,-0.0228,-0.0214,-0.0178,-0.0143,-0.015,-0.0088,-0.0073,-0.007,-0.0112,-0.0115,-0.0118,-0.0127,-0.0108,0,0,0,0,0,-0.048,-0.0473,-0.0437,-0.0429,-0.0419,-0.0382,-0.0367,-0.0347,-0.0312,-0.0297,-0.0254,-0.0209,-0.0167,-0.014,-0.0101,-0.0065,-0.0024,-0.0049,-0.0052,-0.0055,-0.0054,0.0006,0.0009,-0.0019,-0.0019,-0.0019,0,0,-0.0488,-0.0469,-0.0464,-0.0435,-0.0413,-0.0403,-0.0372,-0.0354,-0.0342,-0.0288,-0.0259,-0.0219,-0.0162,-0.0125,-0.0105,-0.0094,-0.0026,-0.0055,-0.0058,-0.0055,0.0007,0.001,0.0012,-0.0019,-0.0019,-0.0019,0,0,-0.0505,-0.0485,-0.0488,-0.0471,-0.0445,-0.0421,-0.0419,-0.038,-0.0359,-0.0329,-0.0287,-0.0244,-0.0183,-0.0138,-0.0107,-0.0102,-0.0049,-0.0091,-0.0105,-0.0047,-0.0044,-0.0041,0.0011,0.0019,-0.0087,-0.0087,-0.0087,0,-0.0518,-0.0516,-0.0485,-0.0485,-0.0474,-0.0433,-0.0436,-0.0407,-0.036,-0.0338,-0.0328,-0.0233,-0.0187,-0.013,-0.0129,-0.0107,-0.007,-0.0097,-0.0051,-0.0047,-0.0043,0.001,0.0019,-0.009,-0.0089,-0.0089,-0.0089,0,-0.0539,-0.0538,-0.0539,-0.0526,-0.0509,-0.0505,-0.0464,-0.0443,-0.0415,-0.0379,-0.0324,-0.0263,-0.0205,-0.0182,-0.0152,-0.01,-0.0081,-0.0067,-0.0044,-0.0043,0.0012,0.0023,-0.0093,-0.0092,-0.0091,-0.0091,0,0,-0.0567,-0.0559,-0.0559,-0.0565,-0.0533,-0.0523,-0.05,-0.0463,-0.0442,-0.0392,-0.0357,-0.0283,-0.0247,-0.0211,-0.0162,-0.0109,-0.0049,-0.008,-0.0076,-0.0032,0.0077,0.0099,0.0114,-0.0027,-0.0026,-0.0024,0.0104,0,-0.0597,-0.0618,-0.0595,-0.0608,-0.0616,-0.057,-0.055,-0.0508,-0.0462,-0.0417,-0.0342,-0.0293,-0.0258,-0.0229,-0.0172,-0.0078,-0.0022,-0.0085,0.0074,0.0078,0.0095,0.0127,0.0095,0.0207,0.0115,0.0116,0.0118,0,-0.0628,-0.064,-0.0665,-0.0655,-0.0651,-0.0647,-0.0605,-0.0581,-0.0502,-0.0463,-0.0398,-0.0337,-0.0248,-0.0226,-0.0065,-0.0108,-0.0023,0.0049,0.0056,0.0102,0.0121,0.0194,0.0231,0.0137,0.0135,0.0134,0.0133,0,-0.0678,-0.0684,-0.0711,-0.0709,-0.0689,-0.0684,-0.0665,-0.0599,-0.0571,-0.0492,-0.0457,-0.035,-0.0285,-0.0173,-0.0026,-0.0043,0.0153,0.0151,0.0252,0.0254,0.0273,0.0274,0.0262,0.0262,0.0262,0.0261,0.0261,0,-0.0725,-0.0742,-0.074,-0.0757,-0.0775,-0.0736,-0.0729,-0.069,-0.0623,-0.0574,-0.049,-0.042,-0.0267,-0.0137,-0.0024,0.0156,0.016,0.0262,0.0295,0.0254,0.0252,0.0224,0.0218,0.0266,0.0265,0.0264,0.0263,0,-0.078,-0.0779,-0.081,-0.0806,-0.0805,-0.0819,-0.0786,-0.0771,-0.0698,-0.0632,-0.0607,-0.0456,-0.028,-0.0123,0.0084,0.0172,0.0329,0.0389,0.0329,0.0352,0.0389,0.0378,0.0512,0.0514,0.0516,0.0517,0.0519,0,-0.0812,-0.0836,-0.0858,-0.0881,-0.0885,-0.0892,-0.0892,-0.0826,-0.0794,-0.064,-0.0607,-0.0425,-0.0277,0.0021,0.0205,0.0412,0.0403,0.0494,0.0456,0.0398,0.0418,0.0404,0.0392,0.0464,0.0465,0.0465,0.0466,0,-0.0868,-0.0876,-0.0903,-0.0958,-0.0977,-0.0983,-0.0966,-0.0953,-0.0844,-0.0764,-0.0601,-0.0466,-0.0159,0.0072,0.0326,0.0435,0.0452,0.0511,0.0493,0.0396,0.0361,0.0376,0.0365,0.047,0.047,0.0469,0.0469,0.0469,-0.0903,-0.094,-0.098,-0.103,-0.1052,-0.1062,-0.1095,-0.1039,-0.098,-0.0875,-0.0646,-0.0458,-0.0157,0.0165,0.0384,0.0538,0.0536,0.0561,0.0556,0.0552,0.0514,0.0483,0.0608,0.0608,0.0609,0.0609,0.0609,0,-0.0945,-0.0988,-0.1046,-0.1103,-0.1168,-0.1129,-0.1139,-0.1155,-0.1114,-0.0942,-0.0773,-0.042,-0.0138,0.0128,0.0395,0.0594,0.0567,0.0604,0.0538,0.0533,0.0529,0.0486,0.0576,0.0576,0.0576,0.0576,0,0,-0.0967,-0.104,-0.1077,-0.12,-0.1234,-0.1273,-0.1294,-0.127,-0.1184,-0.1034,-0.0877,-0.0625,-0.019,-0.0005,0.0279,0.0418,0.0404,0.0417,0.0425,0.031,0.0302,0.0492,0.042,0,0,0,0,0]}],[{"header":{"parameterUnit":"m.s-1","parameterCategory":2,"la1":30.2991,"la2":30.254,"lo1":-89.0895,"lo2":-89.0444,"dy":0.0017,"dx":0.0017,"nx":28,"ny":28,"refTime":"2025-03-23T21:00:00:Z","depth":"4","parameterNumber":2,"parameterNumberName":"U-component_of_CURRENTS"},"data":[0,0,0,0,0,0,0,0,0,0,0,0,0,0,0,0,0,0,0,0,0,0,0,0,0,0,0,0,0,0,0,0,0,0,0,0,0,0,0,0,0,0,0,0,0,0,0,0,0,0,0,0,0,0,0,0,0,0,-0.1628,-0.1629,0,-0.1678,-0.1679,-0.1679,-0.1738,-0.1739,-0.174,-0.1741,-0.1784,-0.1785,-0.1785,0,0,0,0,0,0,0,0,0,0,0,0,0,-0.1564,-0.1564,-0.1628,-0.1629,-0.1629,-0.1678,-0.1679,-0.1679,-0.1738,-0.1739,-0.1741,-0.1742,-0.1784,-0.1785,-0.1785,0,0,0,0,0,0,0,0,0,0,0,0,0,-0.1599,-0.1565,-0.1628,-0.1666,-0.167,-0.1678,-0.1679,-0.168,-0.1738,-0.1739,-0.1741,-0.1742,-0.1784,-0.1785,-0.1785,-0.1755,0,0,-0.1786,-0.1786,0,0,0,0,0,0,0,0,-0.1597,-0.1601,-0.1659,-0.1663,-0.1668,-0.1705,-0.1672,-0.1705,-0.1737,-0.171,-0.1741,-0.1743,-0.1757,-0.176,-0.1763,-0.1757,-0.1759,-0.1786,-0.1786,-0.1786,-0.1786,0,0,0,0,0,0,0,-0.1594,-0.1599,-0.1646,-0.166,-0.1665,-0.1674,-0.1681,-0.1678,-0.1723,-0.1713,-0.1717,-0.1725,-0.1759,-0.1763,-0.1765,-0.1759,-0.1786,-0.1786,-0.1786,-0.1786,-0.1802,-0.1803,0,0,0,0,0,0,-0.1591,-0.1597,-0.1645,-0.1648,-0.1637,-0.1674,-0.1682,-0.169,-0.1723,-0.173,-0.1724,-0.1728,-0.1762,-0.1764,-0.1767,-0.1807,-0.1786,-0.1786,-0.1786,-0.1802,-0.1802,-0.1803,0,0,0,0,0,0,-0.1589,-0.1594,-0.1643,-0.1625,-0.1632,-0.1674,-0.1683,-0.169,-0.1726,-0.1732,-0.1739,-0.1756,-0.1763,-0.1766,-0.1791,-0.1806,-0.1786,-0.1786,-0.1802,-0.1802,-0.1802,-0.184,0,0,0,0,0,0,-0.1587,-0.1594,-0.1609,-0.1624,-0.1633,-0.1664,-0.1682,-0.169,-0.1727,-0.1734,-0.176,-0.1765,-0.1765,-0.179,-0.1791,-0.1806,-0.1787,-0.1801,-0.1802,-0.1802,-0.1838,-0.1842,-0.1844,0,0,0,0,0,-0.1585,-0.1593,-0.1609,-0.1616,-0.1649,-0.1665,-0.167,-0.1704,-0.1727,-0.1742,-0.1764,-0.1765,-0.1794,-0.1791,-0.1791,-0.1807,-0.1801,-0.1802,-0.1802,-0.1837,-0.1841,-0.1844,0,0,0,0,0,0,-0.157,-0.16,-0.1618,-0.1636,-0.1659,-0.1676,-0.1695,-0.1717,-0.1745,-0.176,-0.177,-0.1775,-0.18,-0.1795,-0.1791,-0.1812,-0.1797,-0.1798,-0.1823,-0.1827,-0.1829,-0.1829,-0.1787,0,0,0,0,0,-0.1573,-0.1592,-0.1617,-0.1634,-0.1647,-0.1676,-0.1693,-0.1715,-0.1737,-0.1754,-0.1773,-0.1788,-0.1795,-0.1807,-0.181,-0.1821,-0.1803,-0.1831,-0.1834,-0.1836,-0.1836,-0.1823,-0.1825,-0.1805,-0.1805,-0.1805,0,0,-0.1573,-0.1592,-0.1604,-0.1633,-0.1655,-0.1678,-0.1691,-0.172,-0.1746,-0.1751,-0.1795,-0.18,-0.18,-0.1816,-0.1827,-0.1821,-0.183,-0.1837,-0.184,-0.1837,-0.1824,-0.1826,-0.1828,-0.1805,-0.1805,-0.1805,0,0,-0.1573,-0.1598,-0.1616,-0.1638,-0.1675,-0.1691,-0.1707,-0.174,-0.1765,-0.1797,-0.1807,-0.1823,-0.1841,-0.1842,-0.1844,-0.1861,-0.1845,-0.1867,-0.1886,-0.1875,-0.1876,-0.1877,-0.1848,-0.1847,-0.1871,-0.1871,-0.1871,0,-0.1575,-0.16,-0.1623,-0.1646,-0.167,-0.1702,-0.1728,-0.175,-0.179,-0.1806,-0.1819,-0.1847,-0.185,-0.1862,-0.1872,-0.1869,-0.1855,-0.1876,-0.1879,-0.188,-0.188,-0.185,-0.1848,-0.1873,-0.1872,-0.1872,-0.1872,0,-0.1585,-0.1618,-0.1629,-0.1673,-0.1698,-0.1723,-0.1757,-0.1788,-0.1822,-0.1841,-0.1872,-0.1876,-0.1891,-0.1895,-0.1892,-0.19,-0.1886,-0.1883,-0.1871,-0.1885,-0.1852,-0.1849,-0.1875,-0.1875,-0.1874,-0.1874,0,0,-0.1554,-0.1624,-0.1632,-0.1663,-0.1717,-0.1735,-0.1778,-0.1815,-0.1846,-0.1878,-0.1907,-0.192,-0.1926,-0.1927,-0.1925,-0.192,-0.191,-0.191,-0.1908,-0.1883,-0.1875,-0.1748,-0.1732,-0.1914,-0.1914,-0.1914,-0.1847,0,-0.1559,-0.1609,-0.1644,-0.1696,-0.1724,-0.1769,-0.1804,-0.1844,-0.1876,-0.1909,-0.1917,-0.1941,-0.1937,-0.1949,-0.1944,-0.192,-0.1905,-0.1928,-0.1863,-0.1861,-0.1748,-0.1725,-0.1914,-0.1845,-0.1844,-0.1844,-0.1843,0,-0.1551,-0.1591,-0.1645,-0.1716,-0.1733,-0.1771,-0.1832,-0.1867,-0.1911,-0.1936,-0.1959,-0.1968,-0.1969,-0.1965,-0.1928,-0.1945,-0.1913,-0.189,-0.1887,-0.1752,-0.1728,-0.1829,-0.1837,-0.1838,-0.1838,-0.1838,-0.1839,0,-0.151,-0.1586,-0.1634,-0.1659,-0.1742,-0.1779,-0.1823,-0.1878,-0.1903,-0.1953,-0.1967,-0.198,-0.1976,-0.1954,-0.1905,-0.1924,-0.1848,-0.1864,-0.1716,-0.1707,-0.1828,-0.1828,-0.183,-0.183,-0.183,-0.183,-0.183,0,-0.1484,-0.1525,-0.1626,-0.1651,-0.1703,-0.177,-0.182,-0.1864,-0.1918,-0.1922,-0.1976,-0.196,-0.1975,-0.1934,-0.1902,-0.1778,-0.1839,-0.1702,-0.1675,-0.1844,-0.1846,-0.1825,-0.1825,-0.1828,-0.1828,-0.1829,-0.1829,0,-0.1422,-0.1495,-0.155,-0.1652,-0.1686,-0.1721,-0.1811,-0.1832,-0.1899,-0.1904,-0.1918,-0.194,-0.1876,-0.1861,-0.1805,-0.1741,-0.1662,-0.1606,-0.1766,-0.1753,-0.1535,-0.1538,-0.1437,-0.1431,-0.1427,-0.1423,-0.142,0,-0.139,-0.1417,-0.1531,-0.1562,-0.1613,-0.1682,-0.1715,-0.1807,-0.1814,-0.1858,-0.1831,-0.1814,-0.1803,-0.1608,-0.1627,-0.154,-0.1524,-0.1481,-0.1525,-0.1507,-0.1492,-0.1502,-0.1511,-0.1413,-0.1412,-0.1411,-0.141,0,-0.1317,-0.1373,-0.1417,-0.1476,-0.1528,-0.1564,-0.1617,-0.1612,-0.1682,-0.1774,-0.1683,-0.1635,-0.1555,-0.1501,-0.1433,-0.1383,-0.1512,-0.1435,-0.1445,-0.1487,-0.1478,-0.147,-0.1484,-0.1395,-0.1397,-0.1398,-0.1399,0,-0.1256,-0.1264,-0.1323,-0.1349,-0.141,-0.1392,-0.1454,-0.1446,-0.1466,-0.1531,-0.1494,-0.1479,-0.1521,-0.1416,-0.1357,-0.129,-0.1282,-0.1252,-0.1271,-0.1288,-0.1271,-0.124,-0.1041,0,0,0,0,0,-0.118,-0.1161,-0.1184,-0.1182,-0.1229,-0.1246,-0.1347,-0.1409,-0.1493,-0.1384,-0.1434,-0.1354,-0.1264,-0.127,-0.1165,-0.129,-0.1287,-0.1166,-0.1264,-0.1311,-0.1328,-0.1322,0,0,0,0,0,0,-0.1128,-0.1146,-0.113,-0.1018,-0.0977,-0.099,-0.1049,-0.1121,-0.1079,-0.1188,-0.1144,-0.1238,-0.1171,-0.1257,-0.111,-0.1114,-0.1145,-0.1184,-0.1181,-0.1301,-0.1317,-0.1331,-0.1331,0,0,0,0,0]},{"header":{"parameterUnit":"m.s-1","parameterCategory":2,"la1":30.2991,"la2":30.254,"lo1":-89.0895,"lo2":-89.0444,"dy":0.0017,"dx":0.0017,"nx":28,"ny":28,"refTime":"2025-03-23T21:00:00:Z","depth":"4","parameterNumber":3,"parameterNumberName":"V-component_of_CURRENTS"},"data":[0,0,0,0,0,0,0,0,0,0,0,0,0,0,0,0,0,0,0,0,0,0,0,0,0,0,0,0,0,0,0,0,0,0,0,0,0,0,0,0,0,0,0,0,0,0,0,0,0,0,0,0,0,0,0,0,0,0,-0.0333,-0.0332,0,-0.0287,-0.0286,-0.0285,-0.0261,-0.0261,-0.0261,-0.0261,-0.0182,-0.018,-0.0177,0,0,0,0,0,0,0,0,0,0,0,0,0,-0.0368,-0.0368,-0.0333,-0.0332,-0.0331,-0.0287,-0.0286,-0.0285,-0.0261,-0.0261,-0.0261,-0.0261,-0.0182,-0.018,-0.0177,0,0,0,0,0,0,0,0,0,0,0,0,0,-0.034,-0.0368,-0.0333,-0.0314,-0.0312,-0.0287,-0.0286,-0.0285,-0.0261,-0.0261,-0.0261,-0.0261,-0.0183,-0.018,-0.0177,-0.0158,0,0,-0.0167,-0.0166,0,0,0,0,0,0,0,0,-0.0342,-0.0339,-0.0317,-0.0315,-0.0313,-0.028,-0.0269,-0.0241,-0.0261,-0.028,-0.0261,-0.0261,-0.0211,-0.0206,-0.0198,-0.0154,-0.0151,-0.0167,-0.0165,-0.0164,-0.0163,0,0,0,0,0,0,0,-0.0344,-0.0341,-0.0314,-0.0317,-0.0314,-0.0297,-0.0294,-0.0264,-0.0246,-0.0279,-0.0277,-0.0272,-0.021,-0.0201,-0.0195,-0.015,-0.0167,-0.0164,-0.0162,-0.0161,-0.0088,-0.0087,0,0,0,0,0,0,-0.0352,-0.0343,-0.0316,-0.0313,-0.0328,-0.0297,-0.0293,-0.029,-0.0247,-0.0241,-0.0272,-0.0271,-0.0206,-0.0199,-0.0193,-0.0169,-0.0164,-0.0161,-0.0159,-0.0088,-0.0088,-0.0087,0,0,0,0,0,0,-0.0353,-0.035,-0.0317,-0.0327,-0.0321,-0.0297,-0.0294,-0.0289,-0.0284,-0.0242,-0.0235,-0.0272,-0.0206,-0.0197,-0.0171,-0.0165,-0.0159,-0.0157,-0.0088,-0.0088,-0.0088,-0.012,0,0,0,0,0,0,-0.0354,-0.0351,-0.0355,-0.0327,-0.0321,-0.031,-0.0294,-0.0289,-0.0281,-0.0279,-0.024,-0.0232,-0.0205,-0.0176,-0.0168,-0.0161,-0.0154,-0.0088,-0.0088,-0.0088,-0.0119,-0.0121,-0.0122,0,0,0,0,0,-0.0355,-0.036,-0.0355,-0.0352,-0.0327,-0.031,-0.0306,-0.0287,-0.0281,-0.0282,-0.0255,-0.0234,-0.017,-0.0174,-0.0164,-0.0156,-0.0088,-0.0088,-0.0088,-0.0118,-0.012,-0.0122,0,0,0,0,0,0,-0.0376,-0.0357,-0.0351,-0.035,-0.0336,-0.0306,-0.0305,-0.0293,-0.0272,-0.0272,-0.0233,-0.0223,-0.02,-0.0175,-0.018,-0.0135,-0.0125,-0.0123,-0.0151,-0.0153,-0.0155,-0.0157,-0.0151,0,0,0,0,0,-0.0383,-0.0384,-0.0361,-0.0362,-0.0357,-0.0333,-0.0325,-0.0314,-0.029,-0.0282,-0.0254,-0.0222,-0.019,-0.0171,-0.0145,-0.0118,-0.0089,-0.0106,-0.0108,-0.011,-0.0105,-0.0055,-0.0052,-0.0087,-0.0087,-0.0087,0,0,-0.0392,-0.0382,-0.0382,-0.0367,-0.0355,-0.0348,-0.0329,-0.0322,-0.0312,-0.0275,-0.0257,-0.023,-0.0187,-0.016,-0.0146,-0.0137,-0.0088,-0.0109,-0.0111,-0.0106,-0.0055,-0.0051,-0.0048,-0.0087,-0.0087,-0.0087,0,0,-0.0407,-0.0401,-0.0406,-0.0396,-0.0382,-0.0366,-0.0367,-0.0342,-0.0329,-0.031,-0.0279,-0.0247,-0.0207,-0.0167,-0.0143,-0.0137,-0.0104,-0.0134,-0.0136,-0.0088,-0.0085,-0.0082,-0.0055,-0.0049,-0.0129,-0.0129,-0.0129,0,-0.0419,-0.0421,-0.0405,-0.0405,-0.0399,-0.0376,-0.0377,-0.0358,-0.0329,-0.0313,-0.0311,-0.0241,-0.0206,-0.0155,-0.0153,-0.0139,-0.0117,-0.0132,-0.0091,-0.0086,-0.0082,-0.0055,-0.0048,-0.013,-0.013,-0.013,-0.013,0,-0.0433,-0.0437,-0.0439,-0.0432,-0.0422,-0.0422,-0.0394,-0.0383,-0.0367,-0.0342,-0.0302,-0.0256,-0.0211,-0.0194,-0.017,-0.0122,-0.0119,-0.0104,-0.0086,-0.0081,-0.0053,-0.0045,-0.0132,-0.0132,-0.0131,-0.0131,0,0,-0.0452,-0.045,-0.0452,-0.0458,-0.0438,-0.0434,-0.0416,-0.039,-0.0378,-0.0344,-0.0318,-0.0257,-0.0232,-0.0203,-0.0165,-0.0118,-0.0074,-0.0102,-0.0099,-0.0078,0.0016,-0.0002,0.0005,-0.0054,-0.0052,-0.0051,0.0018,0,-0.047,-0.0485,-0.0471,-0.0483,-0.0488,-0.0461,-0.0447,-0.0419,-0.039,-0.0361,-0.03,-0.0267,-0.0234,-0.0217,-0.0163,-0.0097,-0.0052,-0.0095,0.001,0.0013,-0.0004,0.0015,-0.0046,0.0024,0.0026,0.0028,0.0029,0,-0.0485,-0.0495,-0.0515,-0.0514,-0.0513,-0.0515,-0.0491,-0.0475,-0.042,-0.0395,-0.0343,-0.0301,-0.0225,-0.0207,-0.0081,-0.0112,-0.0051,-0.0,0.0004,0.0008,0.0011,0.0023,0.0044,0.0043,0.0041,0.004,0.004,0,-0.0513,-0.0523,-0.0544,-0.0545,-0.0539,-0.0541,-0.0534,-0.0491,-0.0476,-0.042,-0.0403,-0.031,-0.0269,-0.0174,-0.007,-0.0074,0.0061,0.007,0.0114,0.0112,0.0121,0.0117,0.0161,0.0161,0.0161,0.016,0.016,0,-0.0533,-0.0551,-0.0567,-0.0581,-0.0606,-0.0582,-0.0591,-0.0566,-0.0524,-0.0504,-0.0429,-0.039,-0.0258,-0.0168,-0.0074,0.0041,0.0061,0.0119,0.0136,0.0103,0.0096,0.0126,0.0121,0.0163,0.0162,0.0162,0.0161,0,-0.0559,-0.0569,-0.0601,-0.0616,-0.0626,-0.0646,-0.0646,-0.0646,-0.0598,-0.057,-0.0555,-0.0442,-0.0321,-0.0194,-0.0036,0.0029,0.0143,0.0178,0.012,0.0132,0.0161,0.0154,0.0235,0.0235,0.0235,0.0235,0.0235,0,-0.0573,-0.0594,-0.0642,-0.0676,-0.0691,-0.0716,-0.0734,-0.0696,-0.0686,-0.0598,-0.0584,-0.0465,-0.038,-0.0171,-0.0038,0.0135,0.0159,0.0204,0.0199,0.0164,0.0173,0.0165,0.0158,0.0235,0.0235,0.0235,0.0235,0,-0.06,-0.0625,-0.0657,-0.0735,-0.0776,-0.081,-0.0823,-0.0816,-0.0757,-0.0707,-0.0597,-0.0476,-0.0337,-0.0172,-0.0041,0.0085,0.0168,0.0205,0.0206,0.0202,0.0165,0.0172,0.0165,0.0235,0.0235,0.0235,0.0235,0,-0.0625,-0.0663,-0.0722,-0.0786,-0.0851,-0.0897,-0.0888,-0.0855,-0.0827,-0.0704,-0.0666,-0.0497,-0.0382,-0.0197,-0.0073,0.0045,0.0077,0.0102,0.0109,0.011,0.0053,-0.0014,0.0023,0,0,0,0,0,-0.0643,-0.0697,-0.0767,-0.085,-0.092,-0.0952,-0.095,-0.0922,-0.085,-0.0779,-0.0714,-0.0576,-0.036,-0.0257,-0.0142,-0.0092,0.0072,0.0043,0.0098,0.0237,0.0237,0.0189,0,0,0,0,0,0,-0.066,-0.0731,-0.0776,-0.0897,-0.096,-0.103,-0.1028,-0.0974,-0.0912,-0.0812,-0.0691,-0.0575,-0.0366,-0.0435,-0.0152,-0.0111,-0.0067,0.0164,0.0166,0.0238,0.0237,0.0237,0.0188,0,0,0,0,0]}]]